This is the latest recevied weather packets stored in our database for station/object N8XE-13. If no packets are shown the sender has not sent any weather packets the latest 1 day(s).
| Time | Temp. | Humidity | Pressure | Rain* | Wind** | Luminosity | Snow |
|---|---|---|---|---|---|---|---|
| 1778005622 | 20° C | 64% | - | 0 mm | 0 m/s | - | - |
| 1778005320 | 20° C | 64% | - | 0 mm | 0 m/s | - | - |
| 1778005016 | 20° C | 64% | - | 0 mm | 0.45 m/s, 251° | - | - |
| 1778004714 | 20° C | 64% | - | 0 mm | 0 m/s | - | - |
| 1778004410 | 20° C | 64% | - | 0 mm | 0.89 m/s, 216° | - | - |
| 1778004107 | 20° C | 64% | - | 0 mm | 0 m/s | - | - |
| 1778003803 | 20.56° C | 63% | - | 0 mm | 0.45 m/s, 226° | - | - |
| 1778003499 | 20.56° C | 63% | - | 0 mm | 0 m/s | - | - |
| 1778003196 | 20.56° C | 63% | - | 0 mm | 0 m/s | - | - |
| 1778002892 | 21.11° C | 62% | - | 0 mm | 1.34 m/s, 226° | - | - |
| 1778002589 | 20.56° C | 63% | - | 0 mm | 0.45 m/s, 234° | - | - |
| 1778002286 | 20.56° C | 63% | - | 0 mm | 0 m/s | - | - |
| 1778001984 | 20.56° C | 62% | - | 0 mm | 0.45 m/s, 233° | - | - |
| 1778001680 | 20.56° C | 62% | - | 0 mm | 0.45 m/s, 232° | - | - |
| 1778001375 | 20.56° C | 62% | - | 0 mm | 0.45 m/s, 194° | - | - |
| 1778001072 | 21.11° C | 62% | - | 0 mm | 0.45 m/s, 237° | - | - |
| 1778000769 | 21.11° C | 61% | - | 0 mm | 1.34 m/s, 233° | - | - |
| 1778000466 | 21.67° C | 61% | - | 0 mm | 0 m/s | - | - |
| 1778000160 | 22.22° C | 60% | - | 0 mm | 0 m/s | - | - |
| 1777999857 | 21.67° C | 59% | - | 0 mm | 0 m/s | - | - |
| 1777999552 | 21.67° C | 59% | - | 0 mm | 0.89 m/s, 203° | - | - |
| 1777999250 | 22.22° C | 59% | - | 0 mm | 0.45 m/s, 260° | - | - |
| 1777998949 | 22.78° C | 58% | - | 0 mm | 0 m/s | - | - |
| 1777998645 | 22.22° C | 57% | - | 0 mm | 0.45 m/s, 266° | - | - |
| 1777998338 | 22.22° C | 57% | - | 0 mm | 0.45 m/s, 315° | - | - |
* Rain latest hour (hover to see other rain measurements)
** Current wind speed in m/s (hover to see current wind gust speed)